This demonstration page uses our WeatherBlox Daily Observations layout. Learn more.

Left ArrowRight Arrow

38.80484, -77.04692

Hourly Observations for September 13, 2021

Temp ( °F °C ) Dew Point ( °F °C ) Humidity (%) Winds ( mph kmh ) Pressure ( in mb ) Visibility ( mi km ) Precip ( " mm )
12:52 am 00:52 Mostly Cloudy 75 23.9 67 19.4 76 76 S 6 9 30.09 1019 10 16 N/A
1:52 am 01:52 Cloudy 74 23.3 68 20 82 82 S 6 9 30.09 1019 10 16 N/A
2:52 am 02:52 Cloudy 74 23.3 68 20 82 82 S 5 7 30.09 1019 10 16 N/A
3:52 am 03:52 Cloudy 73 22.8 68 20 84 84 SSW 5 7 30.10 1019 10 16 N/A
4:52 am 04:52 Cloudy 72 22.2 66 18.9 82 82 SSW 3 6 30.10 1019 10 16 N/A
5:52 am 05:52 Cloudy 72 22.2 68 20 87 87 S 5 7 30.11 1020 10 16 N/A
6:52 am 06:52 Mostly Cloudy 71 21.7 67 19.4 87 87 SSW 5 7 30.12 1020 10 16 N/A
7:52 am 07:52 Mostly Cloudy 72 22.2 66 18.9 82 82 SSW 7 11 30.12 1020 10 16 N/A
8:52 am 08:52 Mostly Sunny 75 23.9 66 18.9 74 74 SSW 7 11 30.11 1020 10 16 N/A
9:52 am 09:52 Mostly Sunny 79 26.1 69 20.6 72 72 S 5 7 30.11 1020 10 16 N/A
10:52 am 10:52 Partly Cloudy 87 30.6 64 17.8 46 46 WNW 9 15 30.11 1020 10 16 N/A
11:52 am 11:52 Mostly Sunny 88 31.1 63 17.2 43 43 W 10 17 30.11 1020 9 14 N/A
12:52 pm 12:52 Sunny 88 31.1 65 18.3 46 46 W 12 19 30.10 1019 9 14 N/A
1:52 pm 13:52 Partly Cloudy 89 31.7 66 18.9 47 47 W 13 20 30.10 1019 7 11 N/A
2:35 pm 14:35 Partly Cloudy 89 31.7 67 19.4 48 48 NNW 13 20 30.09 1019 8 13 N/A
2:52 pm 14:52 Partly Cloudy 89 31.7 67 19.4 48 48 N 10 17 30.09 1019 8 13 N/A
3:52 pm 15:52 Partly Cloudy 89 31.7 66 18.9 47 47 WNW 7 11 30.06 1018 10 16 N/A
4:52 pm 16:52 Mostly Sunny 88 31.1 65 18.3 46 46 WNW 12 19 30.05 1018 10 16 N/A
5:52 pm 17:52 Mostly Sunny 87 30.6 65 18.3 48 48 WNW 9 15 30.06 1018 10 16 N/A
6:52 pm 18:52 Mostly Sunny 86 30 65 18.3 49 49 NW 5 7 30.05 1018 10 16 N/A
7:52 pm 19:52 Mostly Clear 81 27.2 67 19.4 62 62 N N/A 30.05 1018 10 16 N/A
8:52 pm 20:52 Mostly Clear 79 26.1 69 20.6 72 72 S 5 7 30.07 1018 10 16 N/A
9:52 pm 21:52 Mostly Clear 78 25.6 70 21.1 76 76 N N/A 30.08 1019 10 16 N/A
10:52 pm 22:52 Mostly Cloudy 77 25 70 21.1 79 79 S 3 6 30.08 1019 10 16 N/A
11:52 pm 23:52 Mostly Cloudy 76 24.4 71 21.7 85 85 N N/A 30.07 1018 10 16 N/A

Powered by AerisWeather